Weather History for Rush City, MN

Change the Weather History Date:

Thursday, February 7, 2013

  Actual Average (KCBG) Record (KCBG)
Temperature  
Mean Temperature 24 °F -  
Max Temperature 27 °F 23 °F 52 °F (1987)
Min Temperature 20 °F 0 °F -26 °F (1972)
Degree Days  
Heating Degree Days 41    
Moisture  
Dew Point 20 °F    
Average Humidity 85    
Maximum Humidity 93    
Minimum Humidity 72    
Precipitation  
Precipitation 0.00 in - - ()
Sea Level Pressure  
Sea Level Pressure 30.13 in    
Wind  
Wind Speed 9 mph (NNE)    
Max Wind Speed 14 mph    
Max Gust Speed 18 mph    
Visibility 10 miles    
Events      
Averages and records for this station are not official NWS values.
T = Trace of Precipitation, MM = Missing Value Source: NWS Daily Summary

Daily Weather History Graph

Daily Weather History Graph

Search for Another Location

Airport:

Trip Planner

Search our weather history database for the weather conditions in past years. The results will help you decide how hot, cold, wet, or windy it might be!

Date:

Astronomy

Feb. 07, 2013 Rise Set
Actual Time 7:25 AM CST 5:27 PM CST
Civil Twilight 6:54 AM CST 5:58 PM CST
Nautical Twilight 6:18 AM CST 6:33 PM CST
Astronomical Twilight 5:44 AM CST 7:08 PM CST
Moon 5:10 AM CST (2/7) 2:48 PM CST (2/7)
Length of Visible Light 11h 04m
Length of Day
10h 02m
Waning Crescent, 9% of the Moon is Illuminated
Feb 7
Waning Crescent
Feb 10
New
Feb 17
First Quarter
Feb 25
Full
Mar 4
Last Quarter

Hourly Weather History & Observations

Time (CST) Temp. Windchill Dew Point Humidity Pressure Visibility Wind Dir Wind Speed Gust Speed Precip Events Conditions
12:15 AM 21.7 °F 11.5 °F 19.2 °F 90% 30.03 in 10.0 mi NE 9.2 mph - N/A   Overcast
12:34 AM 21.9 °F 11.7 °F 19.6 °F 91% 30.03 in 10.0 mi NE 9.2 mph - N/A   Overcast
12:55 AM 21.9 °F 12.5 °F 19.9 °F 92% 30.03 in 10.0 mi NE 8.1 mph - N/A   Overcast
1:14 AM 22.1 °F 12.8 °F 20.3 °F 93% 30.02 in 10.0 mi NE 8.1 mph - N/A   Overcast
1:35 AM 22.1 °F 13.7 °F 20.3 °F 93% 30.03 in 10.0 mi NE 6.9 mph - N/A   Overcast
1:54 AM 22.1 °F 12.8 °F 20.3 °F 93% 30.03 in 10.0 mi NNE 8.1 mph - N/A   Overcast
2:15 AM 22.1 °F 13.7 °F 20.3 °F 93% 30.04 in 10.0 mi NNE 6.9 mph - N/A   Overcast
2:35 AM 22.1 °F 12.0 °F 20.3 °F 93% 30.05 in 10.0 mi NE 9.2 mph - N/A   Overcast
2:54 AM 21.9 °F 11.7 °F 20.3 °F 93% 30.04 in 10.0 mi NE 9.2 mph - N/A   Overcast
3:15 AM 21.9 °F 13.4 °F 20.3 °F 93% 30.04 in 10.0 mi NE 6.9 mph - N/A   Overcast
3:34 AM 21.9 °F 13.4 °F 20.3 °F 93% 30.04 in 10.0 mi NE 6.9 mph - N/A   Overcast
3:55 AM 22.1 °F 14.7 °F 20.5 °F 93% 30.04 in 10.0 mi NNE 5.8 mph - N/A   Overcast
4:15 AM 22.1 °F 12.0 °F 20.3 °F 93% 30.04 in 10.0 mi NNE 9.2 mph - N/A   Overcast
4:35 AM 22.1 °F 12.8 °F 20.3 °F 93% 30.05 in 10.0 mi NNE 8.1 mph - N/A   Overcast
4:55 AM 22.1 °F 13.7 °F 20.3 °F 93% 30.06 in 10.0 mi NNE 6.9 mph - N/A   Overcast
5:14 AM 22.1 °F 14.7 °F 20.3 °F 93% 30.06 in 10.0 mi NNE 5.8 mph - N/A   Overcast
5:35 AM 22.1 °F 12.8 °F 20.3 °F 93% 30.06 in 10.0 mi NNE 8.1 mph - N/A   Overcast
5:55 AM 22.1 °F 13.7 °F 20.3 °F 93% 30.06 in 10.0 mi NNE 6.9 mph - N/A   Overcast
6:14 AM 22.1 °F 12.8 °F 20.3 °F 93% 30.06 in 10.0 mi NNE 8.1 mph - N/A   Overcast
6:35 AM 22.1 °F 11.3 °F 20.3 °F 93% 30.06 in 10.0 mi NNE 10.4 mph - N/A   Overcast
6:55 AM 22.5 °F 13.2 °F 20.3 °F 91% 30.06 in 10.0 mi NNE 8.1 mph - N/A   Overcast
7:15 AM 22.5 °F 14.1 °F 20.1 °F 91% 30.06 in 10.0 mi NE 6.9 mph - N/A   Overcast
7:34 AM 22.6 °F 12.6 °F 20.3 °F 91% 30.07 in 10.0 mi NNE 9.2 mph - N/A   Overcast
7:55 AM 22.8 °F 12.9 °F 20.3 °F 90% 30.08 in 10.0 mi NNE 9.2 mph 16.1 mph N/A   Overcast
8:15 AM 23.0 °F 11.7 °F 20.3 °F 89% 30.10 in 10.0 mi NNE 11.5 mph - N/A   Overcast
8:34 AM 23.0 °F 12.4 °F 20.3 °F 89% 30.11 in 10.0 mi NNE 10.4 mph 16.1 mph N/A   Overcast
8:55 AM 23.4 °F 12.2 °F 20.3 °F 88% 30.11 in 10.0 mi NNE 11.5 mph 16.1 mph N/A   Overcast
9:15 AM 23.4 °F 12.8 °F 20.8 °F 90% 30.11 in 10.0 mi NE 10.4 mph - N/A   Overcast
9:34 AM 23.7 °F 14.0 °F 21.2 °F 90% 30.11 in 10.0 mi NE 9.2 mph 17.3 mph N/A   Overcast
9:55 AM 23.9 °F 15.0 °F 21.2 °F 89% 30.11 in 10.0 mi NE 8.1 mph - N/A   Overcast
10:15 AM 23.9 °F 14.2 °F 21.2 °F 89% 30.13 in 10.0 mi NE 9.2 mph - N/A   Overcast
10:35 AM 24.1 °F 13.7 °F 21.2 °F 89% 30.14 in 10.0 mi NNE 10.4 mph 16.1 mph N/A   Overcast
10:55 AM 24.4 °F 14.9 °F 21.2 °F 87% 30.14 in 10.0 mi NNE 9.2 mph - N/A   Overcast
11:15 AM 24.8 °F 13.4 °F 20.8 °F 85% 30.14 in 10.0 mi NNE 12.7 mph - N/A   Overcast
11:35 AM 25.0 °F 14.8 °F 20.3 °F 82% 30.14 in 10.0 mi NNE 10.4 mph 16.1 mph N/A   Overcast
11:55 AM 25.3 °F 14.1 °F 20.3 °F 81% 30.15 in 10.0 mi NNE 12.7 mph - N/A   Overcast
12:15 PM 25.7 °F 16.4 °F 20.1 °F 79% 30.14 in 10.0 mi NNE 9.2 mph - N/A   Overcast
12:35 PM 25.9 °F 16.0 °F 19.9 °F 78% 30.14 in 10.0 mi NNE 10.4 mph - N/A   Overcast
12:55 PM 26.2 °F 17.1 °F 19.8 °F 76% 30.13 in 10.0 mi NNE 9.2 mph 16.1 mph N/A   Overcast
1:15 PM 26.4 °F 15.0 °F 19.4 °F 75% 30.13 in 10.0 mi NNE 13.8 mph 17.3 mph N/A   Overcast
1:34 PM 26.6 °F 17.5 °F 19.4 °F 74% 30.12 in 10.0 mi NNE 9.2 mph 16.1 mph N/A   Overcast
1:55 PM 26.8 °F 16.5 °F 19.8 °F 75% 30.12 in 10.0 mi NNE 11.5 mph - N/A   Overcast
2:14 PM 26.8 °F 18.5 °F 19.9 °F 75% 30.12 in 10.0 mi North 8.1 mph 17.3 mph N/A   Overcast
2:35 PM 27.0 °F 16.1 °F 19.8 °F 74% 30.11 in 10.0 mi NNE 12.7 mph - N/A   Overcast
2:55 PM 27.3 °F 16.6 °F 19.9 °F 74% 30.12 in 10.0 mi NNE 12.7 mph 17.3 mph N/A   Overcast
3:14 PM 27.1 °F 16.4 °F 19.9 °F 74% 30.12 in 10.0 mi North 12.7 mph 17.3 mph N/A   Overcast
3:35 PM 27.3 °F 17.7 °F 19.6 °F 73% 30.13 in 10.0 mi NNE 10.4 mph - N/A   Overcast
3:55 PM 27.5 °F 19.3 °F 19.6 °F 72% 30.14 in 10.0 mi NE 8.1 mph - N/A   Overcast
4:14 PM 27.5 °F 18.0 °F 19.9 °F 73% 30.15 in 10.0 mi North 10.4 mph - N/A   Overcast
4:35 PM 27.1 °F 16.9 °F 20.5 °F 76% 30.15 in 10.0 mi North 11.5 mph - N/A   Overcast
4:55 PM 27.0 °F 17.3 °F 19.8 °F 74% 30.16 in 10.0 mi NNE 10.4 mph - N/A   Overcast
5:14 PM 27.0 °F 16.7 °F 20.1 °F 75% 30.17 in 10.0 mi NNE 11.5 mph - N/A   Overcast
5:35 PM 26.6 °F 18.2 °F 20.3 °F 77% 30.18 in 10.0 mi NNE 8.1 mph - N/A   Overcast
5:55 PM 26.1 °F 15.0 °F 21.0 °F 81% 30.18 in 10.0 mi North 12.7 mph - N/A   Overcast
6:14 PM 25.7 °F 15.7 °F 21.2 °F 83% 30.19 in 10.0 mi North 10.4 mph - N/A   Overcast
6:35 PM 25.2 °F 13.3 °F 21.2 °F 85% 30.20 in 10.0 mi North 13.8 mph 18.4 mph N/A   Overcast
6:55 PM 25.0 °F 14.2 °F 21.0 °F 85% 30.21 in 10.0 mi North 11.5 mph 16.1 mph N/A   Overcast
7:14 PM 24.8 °F 14.6 °F 20.8 °F 85% 30.21 in 10.0 mi North 10.4 mph - N/A   Overcast
7:35 PM 24.8 °F 15.3 °F 21.0 °F 86% 30.21 in 10.0 mi North 9.2 mph - N/A   Overcast
7:55 PM 24.8 °F 14.6 °F 21.0 °F 86% 30.22 in 10.0 mi North 10.4 mph - N/A   Overcast
8:14 PM 24.4 °F 14.2 °F 20.7 °F 86% 30.22 in 10.0 mi North 10.4 mph - N/A   Overcast
8:35 PM 24.4 °F 14.9 °F 20.7 °F 86% 30.22 in 10.0 mi North 9.2 mph - N/A   Overcast
8:55 PM 24.4 °F 14.9 °F 20.3 °F 84% 30.23 in 10.0 mi North 9.2 mph - N/A   Overcast
9:14 PM 24.4 °F 14.9 °F 20.3 °F 84% 30.23 in 10.0 mi North 9.2 mph - N/A   Overcast
9:35 PM 23.9 °F 15.0 °F 20.1 °F 85% 30.23 in 10.0 mi North 8.1 mph - N/A   Overcast
9:55 PM 23.9 °F 14.2 °F 19.9 °F 85% 30.23 in 10.0 mi North 9.2 mph - N/A   Overcast
10:15 PM 23.9 °F 14.2 °F 19.9 °F 85% 30.25 in 10.0 mi North 9.2 mph - N/A   Overcast
10:35 PM 23.9 °F 15.8 °F 19.6 °F 84% 30.25 in 10.0 mi North 6.9 mph - N/A   Overcast
10:54 PM 23.7 °F 16.6 °F 19.4 °F 84% 30.26 in 10.0 mi North 5.8 mph - N/A   Overcast
11:15 PM 23.4 °F 16.2 °F 19.4 °F 85% 30.25 in 10.0 mi NNE 5.8 mph - N/A   Overcast
11:35 PM 21.9 °F 14.5 °F 18.3 °F 86% 30.26 in 10.0 mi NNE 5.8 mph - N/A   Overcast
11:55 PM 20.8 °F 13.2 °F 17.4 °F 87% 30.26 in 10.0 mi NNE 5.8 mph - N/A   Mostly Cloudy